Hourly Data Report for July 23, 2021

IQALUIT CLIMATE
NUNAVUT
Current Station Operator: ECCC - MSC

63°44'50.000" N
68°32'40.000" W
33.50 m
2402592
71321
XFB

Download Data

Hourly Data (July 2021)
Hourly Data Report for July 23, 2021
TIME
LST
Temp Definition
°C
Dew Point Definition
°C
Rel Hum Definition
%
Precip. Amount Definition
mm

Wind Dir Definition
10's deg

Wind Spd Definition
km/h
Visibility Definition
km
Stn Press Definition
kPa
Hmdx Definition


Wind Chill Definition


Weather Definition


00:00 7.7 7.1 96 0.0 13 6   100.62     LegendNANA
01:00 9.6 7.8 88 0.0 9 3   100.62     LegendNANA
02:00 9.7 7.4 86 0.0 33 8   100.60     LegendNANA
03:00 10.4 7.6 83 0.0 24 10   100.58     LegendNANA
04:00 10.5 7.2 80 0.0 28 12   100.58     LegendNANA
05:00 11.1 7.2 77 0.0 34 9   100.58     LegendNANA
06:00 11.2 7.1 76 0.0 27 21   100.61     LegendNANA
07:00 11.1 7.1 76 0.0 28 17   100.57     LegendNANA
08:00 11.2 5.2 67 0.0 27 27   100.58     LegendNANA
09:00 11.5 6.1 69 0.0 29 30   100.56     LegendNANA
10:00 13.5 6.0 61 0.0 31 11   100.51     LegendNANA
11:00 13.4 6.7 64 0.0 26 19   100.47     LegendNANA
12:00 12.8 6.4 65 0.0 27 23   100.48     LegendNANA
13:00 11.2 7.1 76 0.8 26 26   100.47     LegendNANA
14:00 10.9 8.0 82 1.2 31 11   100.47     LegendNANA
15:00 11.1 8.6 85 0.2 33 13   100.51     LegendNANA
16:00 11.7 7.1 74 0.0 29 16   100.49     LegendNANA
17:00 12.4 6.0 65 0.0 28 19   100.53     LegendNANA
18:00 11.6 5.4 66 0.0 29 19   100.53     LegendNANA
19:00 10.9 4.6 65 0.0 33 18   100.57     LegendNANA
20:00 10.5 4.5 66 0.0 28 16   100.58     LegendNANA
21:00 10.4 5.1 70 0.0 28 17   100.60     LegendNANA
22:00 9.7 4.9 72 0.0 9 10   100.57     LegendNANA
23:00 9.2 4.8 74 0.0 8 8   100.52     LegendNANA

Notes on Data Quality.

Legend

  • E = Estimated
  • M = Missing
  • NA = Not Available*
  • [empty] = Indicates an unobserved value
Date modified: